ONEWEB-0228 (48780 NORAD) Tracking and Keplerian Element Data

This shows tracking and keplerian element data for the satellite.

Feedback or suggestion? Click here.




ElementValue
Catalog48780
NameONEWEB-0228
Epoch Orbit1065
Epoch Day210.91668981
Epoch Year2021
RAAN255.8831
Inclination87.5451
Eccentricity0.0011078
Argument of Perigee46.1849
Mean Anonmoly185.3441
Mean Motion14.40924988
Decay Rate-0.0139398
L11 48780U 21045P 21210.91668981 -.01393980 00000-0 -46490+0 0 9990
L22 48780 87.5451 255.8831 0011078 46.1849 185.3441 14.40924988 10657

Live tracking and technical data element details for ONEWEB-0228 (NORAD 48780). ONEWEB-0228 can be tracked NOW for your location showing map with azimuth and elevation plus other details from your city location.

Track the satellite on the map from your city or location and see movement details for azimuth, elevation, latitude, longitude, range, height, and movement on the map or in text.







IsCatalogInMostPopularTable: catalog: 48780, numindb: 18
Update: records affected: 1



GetName: 48780 ONEWEB-0228

Hit Count: updated at: Sat, 31 Jul 2021 15:38:43 GMT